AirNav   Air Wisconsin pilot careers
 
 1442 users online  

D23 Arcade Tri-County Airport
Arcade, New York, USA

GOING TO ARCADE?


FAA INFORMATION EFFECTIVE 06 DECEMBER 2018

Location

FAA Identifier: D23
Lat/Long: 42-34-00.2230N / 078-25-34.0660W
42-34.003717N / 078-25.567767W
42.5667286 / -78.4261294
(estimated)
Elevation: 1745 ft. / 532 m (estimated)
Variation: 10W (1985)
From city: 2 miles N of ARCADE, NY
Time zone: UTC -5 (UTC -4 during Daylight Saving Time)
Zip code: 14009

Airport Operations

Airport use: Open to the public
Control tower: no
ARTCC: CLEVELAND CENTER
FSS: BUFFALO FLIGHT SERVICE STATION
NOTAMs facility: BUF (NOTAM-D service available)
Attendance: UNATNDD
Wind indicator: yes
Segmented circle: no
Lights: ACTVT MIRL RY 09/27 - 123.0.

Airport Communications

CTAF/UNICOM: 123.0
WX AWOS-3 at OLE (20 nm S): 118.375 (716-557-2001)
  • CD THRU FLT SVCS 1-888-766-8267.

Nearby radio navigation aids

VOR radial/distance  VOR name  Freq  Var
BUFr164/23.8BUFFALO VOR/DME116.4008W
ELZr336/34.3WELLSVILLE VORTAC111.4009W
GEEr251/34.5GENESEO VOR/DME108.2009W
JHWr061/38.3JAMESTOWN VOR/DME114.7007W

Airport Services

Parking: hangars and tiedowns
Airframe service: NONE
Powerplant service: NONE
Bottled oxygen: NONE
Bulk oxygen: NONE

Runway Information

Runway 9/27

Dimensions: 3220 x 60 ft. / 981 x 18 m
Surface: gravel, in fair condition
Runway edge lights: medium intensity
RUNWAY 9  RUNWAY 27
Traffic pattern: leftleft
Obstructions: 12 ft. tree, 5 ft. from runway, 66 ft. left of centerline
NUMEROUS TREES 30 TO 60 FT; 30 FT FM THRESHOLD BOTH SIDES OF RY 09 CNTRLNE.
20 ft. brush, 226 ft. from runway, 183 ft. right of centerline, 11:1 slope to clear

Runway 14/32

Dimensions: 2710 x 80 ft. / 826 x 24 m
Surface: turf, in good condition
RUNWAY 14  RUNWAY 32
Traffic pattern: leftleft
Obstructions: 33 ft. tree, 131 ft. from runway, 79 ft. left of centerline, 4:1 slope to clear
NUMEROUS TREES +15 TO +70 FT BOTH SIDES OF RY 14.
34 ft. trees, 25 ft. from runway, 83 ft. right of centerline
NUMEROUS TREES +15 TO +75 FT BOTH SIDES OF RY 32.

Airport Ownership and Management from official FAA records

Ownership: Privately-owned
Owner: LARRY SNYDER
8234 HUNTERS CREEK RD
HOLLAND, NY 14080
Phone 716-537-9172
Manager: LARRY SNYDER
8234 HUNTERS CREEK RD
HOLLAND, NY 14080
Phone 716-537-9172

Airport Operational Statistics

Aircraft based on the field: 12
Single engine airplanes: 12
    
Aircraft operations: avg 67/week *
86% local general aviation
14% transient general aviation
* for 12-month period ending 17 May 2016

Additional Remarks

ULTRALGT ACFT PROHIBITED.
ARPT CLSD WINTER MONTHS - CALL MGR

Instrument Procedures

There are no published instrument procedures at D23.

Some nearby airports with instrument procedures:

KOLE - Cattaraugus County-Olean Airport (20 nm S)
9G0 - Buffalo Airfield (22 nm NW)
KBUF - Buffalo Niagara International Airport (26 nm NW)
9G3 - Akron Airport (27 nm N)
KGVQ - Genesee County Airport (30 nm N)
 
Loc | Ops | Rwys | IFR | FBO | Links
Com | Nav | Svcs | Stats | Notes


 
Area around D23 (Arcade Tri-County Airport)
 
Road maps at: MapQuest Bing Google
 
Aerial photo
WARNING: Photo may not be current or correct
Aerial photo of D23 (Arcade Tri-County Airport)
Photo taken 30-Sep-2012
looking east.

Do you have a better or more recent aerial photo of Arcade Tri-County Airport that you would like to share? If so, please send us your photo.

 
Sectional chart

 
Airport distance calculator
Flying to Arcade Tri-County Airport? Find the distance to fly.

From to D23

Sunrise and sunset
Times for 18-Dec-2018
 Local
(UTC-5)
 Zulu
(UTC)
Morning civil twilight07:0712:07
Sunrise07:4012:40
Sunset16:4121:41
Evening civil twilight17:1322:13

Current date and time
Zulu (UTC)  18-Dec-2018 16:23:31
Local (UTC-5)  18-Dec-2018 11:23:31
 
METAR
KOLE 
20nm S 
181555Z AUTO 32003KT 10SM OVC015 M06/M08 A3011 RMK AO2
KBUF 
26nm NW 
181554Z 34005KT 10SM FEW018 BKN027 M04/M08 A3022 RMK AO2 SLP244 T10391083
KGVQ 
30nm N 
181456Z AUTO 33008KT 9SM -SN OVC022 M05/M09 A3021 RMK AO2 SLP260 P0000 6//// T10501094 51017 FZRANO
KDSV 
31nm E 
181554Z AUTO 34011KT 10SM OVC028 M03/M09 A3020 RMK AO2 SLP244 T10331094
KELZ 
34nm SE 
181556Z AUTO 33012KT 10SM BKN020 M05/M09 A3010 RMK AO2 SLP225 T10501089 $
KDKK 
38nm W 
181553Z AUTO 04007KT 10SM BKN020 OVC025 M03/M06 A3024 RMK AO2 SLP249 T10281061
KIAG 
40nm NW 
181553Z 35008KT 10SM OVC030 M04/M09 A3023 RMK AO2 SLP255 T10391094 $
TAF
KBUF 
26nm NW 
181123Z 1812/1912 32009KT P6SM BKN035 FM181300 32009KT P6SM BKN050 FM181500 33008KT P6SM SCT050 FM182300 25006KT P6SM FEW250 FM190800 21009KT P6SM SCT060
NOTAMs
Click for the latest NOTAMs
NOTAMs are issued by the DoD/FAA and will open in a separate window not controlled by AirNav.

 

 
 

Would you like to see your business listed on this page?

 If your business provides an interesting product or service to pilots, flight crews, aircraft, or users of the Arcade Tri-County Airport, you should consider listing it here.  To start the listing process, click on the button below
 
Add a business
 

Other Pages about Arcade Tri-County Airport

Update a link
 
Copyright © AirNav, LLC. All rights reserved. Privacy Policy  Contact